Overview Statistics Trail Chart Weather Telemetry Raw packets
 

This is the latest recevied weather packets stored in our database for station/object N1YZ. If no packets are shown the sender has not sent any weather packets the latest 10 day(s).

<< 18 19 20 21 22 23 24 >>
Time Temp. Humidity Pressure Rain* Wind** Luminosity Snow
1788526988 25.56° C 93% 1036.3 hPa 0 mm - 24 W/m² -
1788526683 25° C 94% 1036.4 hPa 0 mm - 16 W/m² -
1788526378 25° C 94% 1036.2 hPa 0 mm - 15 W/m² -
1788526073 25° C 94% 1036.2 hPa 0 mm - 13 W/m² -
1788525770 25° C 95% 1035.9 hPa 0 mm - 12 W/m² -
1788525470 25° C 95% 1036 hPa 0 mm - 15 W/m² -
1788525165 25° C 95% 1036 hPa 0 mm - 14 W/m² -
1788524860 25° C 95% 1035.8 hPa 0 mm - 12 W/m² -
1788524554 25° C 95% 1035.8 hPa 0 mm - 10 W/m² -
1788524250 25° C 96% 1035.9 hPa 0 mm - 10 W/m² -
1788523945 24.44° C 96% 1035.8 hPa 0 mm - 11 W/m² -
1788523642 24.44° C 96% 1035.9 hPa 0 mm - 11 W/m² -
1788523337 24.44° C 96% 1035.6 hPa 0 mm - 10 W/m² -
1788523033 24.44° C 96% 1035.8 hPa 0 mm - 9 W/m² -
1788522732 24.44° C 96% 1035.6 hPa 0 mm - 8 W/m² -
1788522427 24.44° C 96% 1035.4 hPa 0 mm - 7 W/m² -
1788522141 24.44° C 96% 1035.4 hPa 0 mm - 5 W/m² -
1788521816 24.44° C 96% 1035.5 hPa 0 mm - 4 W/m² -
1788521515 24.44° C 96% 1035.5 hPa 0 mm - 3 W/m² -
1788521210 24.44° C 96% 1035.3 hPa 0 mm - 2 W/m² -
1788520906 24.44° C 96% 1035.5 hPa 0 mm - 1 W/m² -
1788520602 24.44° C 96% 1035.4 hPa 0 mm - 1 W/m² -
1788520297 24.44° C 96% 1035.2 hPa 0 mm - 0 W/m² -
1788519992 24.44° C 96% 1035.3 hPa 0 mm - 0 W/m² -
1788519687 24.44° C 96% 1035 hPa 0 mm - 0 W/m² -

* Rain latest hour (hover to see other rain measurements)
** Current wind speed in m/s (hover to see current wind gust speed)